Location: East Flat Top Lake
(32.0554°N, 97.8134°W)
Time: 01:27:27
(UTC+00:00)

Daily predictions for brighter satellites

Satellite Brightness Start Highest point End
(mag) Time Altitude Azimuth Time Altitude Azimuth Time Altitude Azimuth
Cosmos 1606 2.3 00:03:23 10° SSW 00:06:03 61° W 00:08:45 10° N
SJ-12 3.7 00:04:37 10° SSE 00:08:21 59° ENE 00:12:07 10° N
Cosmos 2016 Rocket 4.0 00:04:50 10° S 00:10:56 65° E 00:17:09 10° NNE
CORIOLIS 4.3 00:05:48 10° SSE 00:11:12 85° W 00:16:36 10° NNW
SAR-Lupe-4 3.6 00:08:05 10° S 00:11:39 84° WSW 00:15:15 10° NNW
USA 215 4.0 00:08:53 10° SSE 00:15:18 59° SW 00:21:46 10° NW
Cosmos 909 Rocket 4.4 00:09:33 10° NNW 00:15:33 46° ENE 00:21:58 10° SE
CZ-2D R/B 4.4 00:13:46 10° SE 00:17:00 24° ENE 00:20:18 10° NNE
Cosmos 1378 Rocket 4.1 00:14:19 10° NNW 00:18:34 62° W 00:22:50 10° S
SPOT 1/Viking Rocket 4.2 00:15:39 10° SE 00:20:08 32° ENE 00:24:40 10° N
Cosmos 1943 Rocket 4.0 00:19:00 10° ESE 00:20:11 11° E 00:20:25 11° E
Cosmos 1782 Rocket 4.0 00:16:04 10° SSE 00:20:12 40° E 00:24:21 10° NNE
Cosmos 1818 4.2 00:15:33 10° NW 00:20:54 61° WSW 00:26:12 10° SSE
ARIANE 5 R/B 2.5 00:17:11 10° SSE 00:22:11 84° WSW 00:27:11 10° NNW
Tiangong 0.2 00:20:39 10° NW 00:22:35 15° N 00:24:28 10° NE
SWARM A 4.3 00:26:27 10° N 00:29:46 81° W 00:33:04 10° S
Cosmos 2061 Rocket 4.1 00:24:12 10° S 00:30:27 60° E 00:36:39 10° NNE
Cosmos 1140 Rocket 4.0 00:26:46 10° SSE 00:31:32 38° E 00:36:18 10° NE
SKYMED 2 3.5 00:30:41 10° NNE 00:35:02 86° E 00:39:23 10° SSW
Cosmos 1908 Rocket 4.3 00:31:41 10° SSW 00:35:57 55° W 00:40:17 10° N
COSMO-SKYMED 1 2.4 00:31:59 10° NNE 00:36:04 58° E 00:40:05 10° S
SMAP 4.4 00:32:23 10° S 00:36:48 43° W 00:41:14 10° NNW
Cosmos 1300 Rocket 3.5 00:36:38 10° S 00:41:02 85° E 00:45:26 10° N
Cosmos 1833 Rocket 4.0 00:40:57 10° NNE 00:44:22 18° NE 00:44:22 18° NE
Delta 2 Rocket 3.5 00:42:57 10° W 00:46:53 54° N 00:48:35 29° ENE
Cosmos 1975 Rocket 3.8 00:45:36 10° NNE 00:49:23 29° E 00:53:10 10° SE
Cosmos 1441 Rocket 2.8 00:47:23 10° N 00:50:39 55° E 00:53:55 10° SSE
Cosmos 2221 Rocket 4.1 00:46:25 10° NNW 00:50:51 62° W 00:55:13 10° S
VEP-3 3.8 00:42:44 10° W 00:51:17 42° SSW 00:55:45 14° ESE
Cosmos 1603 4.2 00:49:40 10° NNW 00:55:15 61° WSW 01:00:46 10° S
Spot 4 Rocket 3.9 00:57:03 10° SSE 01:02:08 76° ENE 01:07:12 10° N
Cosmos 2084 Rocket 3.2 00:58:27 10° SSW 01:02:36 84° ESE 01:04:22 34° NE
SJ-7 4.0 01:04:58 10° SSE 01:08:40 89° W 01:12:22 10° NNW
PSLV R/B 3.3 01:08:21 10° SSE 01:12:26 87° E 01:16:31 10° NNW
Cosmos 407 Rocket 3.7 01:08:02 10° S 01:13:03 47° ESE 01:13:35 45° E
Cosmos 1869 3.5 01:10:31 10° S 01:13:09 46° SSE 01:13:09 46° SSE
Cosmos 1464 Rocket 4.2 01:13:02 10° SSE 01:19:00 45° E 01:20:09 41° ENE
NOSS 3-4 (A) 3.9 01:13:13 10° NNW 01:20:30 72° ENE 01:28:23 12° SE
NOSS 3-4 (C) 3.9 01:13:18 10° NNW 01:20:35 71° ENE 01:28:09 13° SE
NOAA 6 3.9 01:16:35 10° SSE 01:21:42 72° ENE 01:26:51 10° N
Resurs 1-3 3.6 01:19:01 10° S 01:23:18 76° W 01:27:35 10° NNW
ATLAS CENTAUR R/B 3.9 01:24:19 10° WNW 01:25:28 11° NW 01:26:37 10° NNW
Cosmos 2278 Rocket 2.5 01:20:34 10° S 01:25:11 44° SE 01:25:11 44° SE
YAOGAN 1 3.5 01:31:33 10° S 01:35:38 46° W 01:39:44 10° NNW
USA 281 3.5 01:39:32 47° NE 01:39:32 47° NE 01:44:55 10° N
SL-12 R/B(2) 4.1 01:31:09 10° SSW 01:38:39 82° WNW 01:44:53 22° NNE
OAO 2 Rocket 3.7 01:36:12 10° SW 01:40:43 56° S 01:40:43 56° S
OAO 3 Copernicus 4.4 01:38:58 10° WSW 01:43:34 73° W 01:43:34 73° W
Cosmos 1072 Rocket 4.3 01:41:03 10° S 01:47:19 87° E 01:49:40 41° N
Cosmos 1943 Rocket 2.6 01:57:31 10° SSW 02:02:00 56° SW 02:02:00 56° SW
Timation 2 Rocket 4.5 02:01:32 10° SSW 02:08:13 63° WNW 02:09:56 49° NNW
Cosmos 1833 Rocket 4.4 02:23:30 10° NNW 02:26:07 27° NW 02:26:07 27° NW
NOSS 3-1 (A) 3.9 10:29:28 39° ESE 10:29:28 39° ESE 10:33:53 10° NE
DELTA 2 R/B (1) 3.8 10:45:20 55° S 10:45:20 55° S 10:50:08 10° SE
Cosmos 1153 Rocket 4.4 10:43:34 10° N 10:49:47 87° E 10:56:04 10° S
Cosmos 1340 Rocket 3.2 11:00:18 53° SE 11:00:18 53° SE 11:03:19 10° SSE
Cosmos 1943 Rocket 4.4 10:55:55 10° NNE 11:00:03 21° ENE 11:04:09 10° ESE
PAYLOAD A 4.0 10:55:34 10° N 11:00:42 62° WNW 11:00:42 62° WNW
CZ-2C R/B 4.3 10:57:04 10° N 10:58:22 18° N 10:58:22 18° N
Meteor 2-14 Rocket 4.3 10:57:09 10° SSW 11:03:10 61° W 11:09:12 10° N
USA 234 3.9 10:57:12 10° ESE 11:03:28 50° NE 11:08:18 17° NNW
Cosmos 1066 4.5 11:06:37 10° S 11:12:03 82° W 11:17:34 10° N
SL-16 R/B 3.7 11:07:08 10° SSW 11:10:12 25° SW 11:10:12 25° SW
Intercosmos 25 Rocket 4.5 11:22:45 38° W 11:23:26 39° WNW 11:29:48 10° N
IRS-1D 3.4 11:21:37 10° NNE 11:26:34 87° E 11:31:29 10° SSW
UNK 4.1 11:23:08 10° SSW 11:27:21 39° W 11:27:44 38° W
COSMOS 2428 3.3 11:29:57 31° W 11:30:42 32° WNW 11:35:46 10° N
NOSS 0 Rocket 4.0 11:29:22 10° SW 11:35:18 50° WNW 11:41:16 10° N
Cosmos 2100 Rocket 3.9 11:29:40 10° NNW 11:35:42 62° W 11:41:47 10° S
Cosmos 1703 Rocket 3.7 11:36:50 10° SSW 11:40:59 47° W 11:45:12 10° N
Helios 1A Rocket 3.3 11:40:53 10° SSE 11:44:10 49° ENE 11:47:28 10° N
Cosmos 1023 Rocket 4.3 11:39:53 10° NNW 11:44:56 74° WSW 11:49:57 10° S
Cosmos 921 Rocket 3.7 11:43:43 23° NW 11:45:36 33° W 11:49:33 10° SSW
BlueWalker 3 3.7 11:42:58 10° NNW 11:45:56 24° NE 11:48:55 10° E
Cosmos 1980 3.8 11:44:14 10° SW 11:49:42 52° WNW 11:55:13 10° N
